Time,TemperatureF,DewpointF,PressureIn,WindDirection,WindDirectionDegrees,WindSpeedMPH,WindSpeedGustMPH,Humidity,HourlyPrecipIn,Conditions,Clouds,dailyrainin,SolarRadiationWatts/m^2,SoftwareType,DateUTC
2013-06-13 00:13:00,55.3,51.0,29.99,SE,134,1.0,7.0,84,0.00,,,0.00,0,weatherlink.com 1.10,2013-06-13 07:13:00,
2013-06-13 00:28:00,55.1,51.0,29.99,SSE,156,4.0,7.0,85,0.00,,,0.00,0,weatherlink.com 1.10,2013-06-13 07:28:00,
2013-06-13 00:43:00,54.9,51.0,29.99,SE,139,4.0,11.0,85,0.00,,,0.00,0,weatherlink.com 1.10,2013-06-13 07:43:00,
2013-06-13 00:58:00,54.7,51.0,30.00,ESE,120,5.0,9.0,86,0.00,,,0.00,0,weatherlink.com 1.10,2013-06-13 07:58:00,
2013-06-13 01:14:00,54.3,50.0,30.00,SE,128,2.0,7.0,86,0.00,,,0.00,0,weatherlink.com 1.10,2013-06-13 08:14:00,
2013-06-13 01:29:00,54.0,50.0,30.00,SE,126,3.0,8.0,85,0.00,,,0.00,0,weatherlink.com 1.10,2013-06-13 08:29:00,
2013-06-13 01:44:00,53.6,49.0,30.00,SE,138,3.0,6.0,85,0.00,,,0.00,0,weatherlink.com 1.10,2013-06-13 08:44:00,
2013-06-13 01:59:00,53.2,49.0,30.00,SSE,147,2.0,5.0,86,0.00,,,0.00,0,weatherlink.com 1.10,2013-06-13 08:59:00,
2013-06-13 02:14:00,53.2,50.0,30.01,SE,124,2.0,5.0,87,0.00,,,0.00,0,weatherlink.com 1.10,2013-06-13 09:14:00,
2013-06-13 02:29:00,53.0,50.0,30.01,SE,142,3.0,4.0,88,0.00,,,0.00,0,weatherlink.com 1.10,2013-06-13 09:29:00,
2013-06-13 02:44:00,52.8,50.0,30.01,SE,134,2.0,3.0,89,0.00,,,0.00,0,weatherlink.com 1.10,2013-06-13 09:44:00,
2013-06-13 02:59:00,52.7,50.0,30.01,SE,126,3.0,5.0,89,0.00,,,0.00,0,weatherlink.com 1.10,2013-06-13 09:59:00,
2013-06-13 03:14:00,52.4,49.0,30.01,SE,134,1.0,6.0,89,0.00,,,0.00,0,weatherlink.com 1.10,2013-06-13 10:14:00,
2013-06-13 03:29:00,52.1,49.0,30.01,SE,128,2.0,3.0,89,0.00,,,0.00,0,weatherlink.com 1.10,2013-06-13 10:29:00,
2013-06-13 03:44:00,52.0,49.0,30.01,SSE,156,1.0,2.0,89,0.00,,,0.00,0,weatherlink.com 1.10,2013-06-13 10:44:00,
2013-06-13 03:59:00,51.7,49.0,30.02,SE,126,0.0,2.0,89,0.00,,,0.00,0,weatherlink.com 1.10,2013-06-13 10:59:00,
2013-06-13 04:14:00,51.8,49.0,30.02,ESE,123,1.0,3.0,89,0.00,,,0.00,0,weatherlink.com 1.10,2013-06-13 11:14:00,
2013-06-13 04:29:00,51.7,49.0,30.02,SE,142,0.0,4.0,89,0.00,,,0.00,0,weatherlink.com 1.10,2013-06-13 11:29:00,
2013-06-13 04:44:00,51.7,49.0,30.02,SE,125,1.0,3.0,89,0.00,,,0.00,0,weatherlink.com 1.10,2013-06-13 11:44:00,
2013-06-13 04:59:00,51.7,49.0,30.02,SE,124,1.0,3.0,89,0.00,,,0.00,0,weatherlink.com 1.10,2013-06-13 11:59:00,
2013-06-13 05:14:00,51.6,49.0,30.03,SSE,150,0.0,4.0,89,0.00,,,0.00,0,weatherlink.com 1.10,2013-06-13 12:14:00,
2013-06-13 05:29:00,51.4,48.0,30.03,SSE,148,0.0,1.0,88,0.00,,,0.00,0,weatherlink.com 1.10,2013-06-13 12:29:00,
2013-06-13 05:44:00,51.2,48.0,30.04,ESE,121,0.0,2.0,89,0.00,,,0.00,0,weatherlink.com 1.10,2013-06-13 12:44:00,
2013-06-13 05:59:00,51.2,48.0,30.04,SE,128,1.0,3.0,90,0.00,,,0.00,0,weatherlink.com 1.10,2013-06-13 12:59:00,
2013-06-13 06:14:00,51.4,48.0,30.05,ESE,116,0.0,2.0,89,0.00,,,0.00,0,weatherlink.com 1.10,2013-06-13 13:14:00,
2013-06-13 06:29:00,51.5,48.0,30.05,SE,136,1.0,6.0,89,0.00,,,0.00,0,weatherlink.com 1.10,2013-06-13 13:29:00,
2013-06-13 06:44:00,51.8,48.0,30.05,SE,128,1.0,3.0,88,0.00,,,0.00,0,weatherlink.com 1.10,2013-06-13 13:44:00,
2013-06-13 06:59:00,52.1,48.0,30.06,SSE,156,0.0,2.0,87,0.00,,,0.00,0,weatherlink.com 1.10,2013-06-13 13:59:00,
2013-06-13 07:14:00,51.9,48.0,30.06,SE,146,1.0,1.0,87,0.00,,,0.00,0,weatherlink.com 1.10,2013-06-13 14:14:00,
2013-06-13 07:29:00,52.6,49.0,30.07,ESE,123,0.0,3.0,87,0.00,,,0.00,0,weatherlink.com 1.10,2013-06-13 14:29:00,
2013-06-13 07:44:00,53.4,49.0,30.07,SE,134,0.0,2.0,86,0.00,,,0.00,0,weatherlink.com 1.10,2013-06-13 14:44:00,
2013-06-13 07:59:00,54.3,50.0,30.07,SE,133,0.0,3.0,85,0.00,,,0.00,0,weatherlink.com 1.10,2013-06-13 14:59:00,
2013-06-13 08:14:00,56.3,51.0,30.07,ESE,113,0.0,3.0,81,0.00,,,0.00,0,weatherlink.com 1.10,2013-06-13 15:14:00,
2013-06-13 08:29:00,58.1,51.0,30.08,SSW,199,0.0,5.0,78,0.00,,,0.00,0,weatherlink.com 1.10,2013-06-13 15:29:00,
2013-06-13 08:44:00,59.3,51.0,30.08,SE,129,0.0,4.0,75,0.00,,,0.00,0,weatherlink.com 1.10,2013-06-13 15:44:00,
2013-06-13 08:59:00,60.5,51.0,30.09,SW,226,0.0,4.0,72,0.00,,,0.00,0,weatherlink.com 1.10,2013-06-13 15:59:00,
2013-06-13 09:15:00,61.7,52.0,30.09,SSE,149,1.0,5.0,70,0.00,,,0.00,0,weatherlink.com 1.10,2013-06-13 16:15:00,
2013-06-13 09:30:00,62.4,52.0,30.09,SE,128,2.0,6.0,68,0.00,,,0.00,0,weatherlink.com 1.10,2013-06-13 16:30:00,
2013-06-13 09:45:00,63.1,52.0,30.09,SE,137,3.0,6.0,68,0.00,,,0.00,0,weatherlink.com 1.10,2013-06-13 16:45:00,
2013-06-13 10:00:00,63.7,52.0,30.09,ESE,114,4.0,7.0,67,0.00,,,0.00,0,weatherlink.com 1.10,2013-06-13 17:00:00,
2013-06-13 10:15:00,64.6,54.0,30.09,SW,220,1.0,6.0,68,0.00,,,0.00,0,weatherlink.com 1.10,2013-06-13 17:15:00,
2013-06-13 10:30:00,65.9,51.0,30.09,SE,142,0.0,5.0,58,0.00,,,0.00,0,weatherlink.com 1.10,2013-06-13 17:30:00,
2013-06-13 10:45:00,66.5,50.0,30.09,SSE,168,2.0,6.0,56,0.00,,,0.00,0,weatherlink.com 1.10,2013-06-13 17:45:00,
2013-06-13 11:00:00,66.9,49.0,30.09,WSW,240,2.0,7.0,52,0.00,,,0.00,0,weatherlink.com 1.10,2013-06-13 18:00:00,
2013-06-13 11:15:00,67.4,48.0,30.09,South,190,1.0,7.0,51,0.00,,,0.00,0,weatherlink.com 1.10,2013-06-13 18:15:00,
2013-06-13 11:30:00,67.5,50.0,30.09,SE,126,3.0,8.0,54,0.00,,,0.00,0,weatherlink.com 1.10,2013-06-13 18:30:00,
2013-06-13 11:45:00,67.9,50.0,30.09,SSW,206,5.0,7.0,53,0.00,,,0.00,0,weatherlink.com 1.10,2013-06-13 18:45:00,
2013-06-13 12:00:00,67.8,50.0,30.09,SE,142,4.0,7.0,53,0.00,,,0.00,0,weatherlink.com 1.10,2013-06-13 19:00:00,
2013-06-13 12:15:00,68.3,51.0,30.09,SSW,213,1.0,7.0,54,0.00,,,0.00,0,weatherlink.com 1.10,2013-06-13 19:15:00,
2013-06-13 12:30:00,68.1,52.0,30.09,ESE,121,5.0,8.0,56,0.00,,,0.00,0,weatherlink.com 1.10,2013-06-13 19:30:00,
2013-06-13 12:45:00,67.5,51.0,30.09,SE,134,2.0,10.0,55,0.00,,,0.00,0,weatherlink.com 1.10,2013-06-13 19:45:00,
2013-06-13 13:00:00,69.0,52.0,30.09,SSE,168,9.0,9.0,56,0.00,,,0.00,0,weatherlink.com 1.10,2013-06-13 20:00:00,
2013-06-13 13:15:00,70.1,51.0,30.08,South,169,5.0,8.0,51,0.00,,,0.00,0,weatherlink.com 1.10,2013-06-13 20:15:00,
2013-06-13 13:30:00,70.1,51.0,30.08,SSW,207,3.0,8.0,51,0.00,,,0.00,0,weatherlink.com 1.10,2013-06-13 20:30:00,
2013-06-13 13:45:00,70.8,51.0,30.08,West,269,5.0,11.0,49,0.00,,,0.00,0,weatherlink.com 1.10,2013-06-13 20:45:00,
2013-06-13 14:00:00,70.9,51.0,30.07,SSW,197,2.0,11.0,50,0.00,,,0.00,0,weatherlink.com 1.10,2013-06-13 21:00:00,
2013-06-13 14:15:00,70.8,49.0,30.07,SSW,213,7.0,11.0,47,0.00,,,0.00,0,weatherlink.com 1.10,2013-06-13 21:15:00,
2013-06-13 14:30:00,71.4,51.0,30.07,South,187,6.0,11.0,48,0.00,,,0.00,0,weatherlink.com 1.10,2013-06-13 21:30:00,
2013-06-13 14:45:00,71.1,50.0,30.07,SW,227,9.0,12.0,47,0.00,,,0.00,0,weatherlink.com 1.10,2013-06-13 21:45:00,
2013-06-13 15:00:00,72.7,49.0,30.06,SSW,192,3.0,10.0,43,0.00,,,0.00,0,weatherlink.com 1.10,2013-06-13 22:00:00,
2013-06-13 15:15:00,74.7,49.0,30.05,SSE,165,6.0,10.0,40,0.00,,,0.00,0,weatherlink.com 1.10,2013-06-13 22:15:00,
2013-06-13 15:30:00,73.8,52.0,30.05,ESE,119,4.0,8.0,46,0.00,,,0.00,0,weatherlink.com 1.10,2013-06-13 22:30:00,
2013-06-13 15:45:00,72.9,53.0,30.05,SSW,211,6.0,9.0,50,0.00,,,0.00,0,weatherlink.com 1.10,2013-06-13 22:45:00,
2013-06-13 16:00:00,73.4,52.0,30.05,SSE,165,7.0,10.0,47,0.00,,,0.00,0,weatherlink.com 1.10,2013-06-13 23:00:00,
2013-06-13 16:15:00,73.6,51.0,30.04,SSE,156,6.0,9.0,45,0.00,,,0.00,0,weatherlink.com 1.10,2013-06-13 23:15:00,
2013-06-13 16:30:00,73.6,51.0,30.04,South,178,5.0,9.0,46,0.00,,,0.00,0,weatherlink.com 1.10,2013-06-13 23:30:00,
2013-06-13 16:45:00,73.8,53.0,30.03,SSE,156,4.0,7.0,49,0.00,,,0.00,0,weatherlink.com 1.10,2013-06-13 23:45:00,
2013-06-13 17:00:00,74.4,52.0,30.03,SSE,148,4.0,8.0,46,0.00,,,0.00,0,weatherlink.com 1.10,2013-06-14 00:00:00,
2013-06-13 17:15:00,73.1,53.0,30.03,SSE,163,1.0,8.0,49,0.00,,,0.00,0,weatherlink.com 1.10,2013-06-14 00:15:00,
2013-06-13 17:30:00,74.1,51.0,30.02,SSE,150,3.0,7.0,45,0.00,,,0.00,0,weatherlink.com 1.10,2013-06-14 00:30:00,
2013-06-13 17:45:00,74.6,52.0,30.02,SSE,161,2.0,6.0,46,0.00,,,0.00,0,weatherlink.com 1.10,2013-06-14 00:45:00,
2013-06-13 18:00:00,73.4,54.0,30.01,South,173,1.0,6.0,51,0.00,,,0.00,0,weatherlink.com 1.10,2013-06-14 01:00:00,
2013-06-13 18:15:00,73.9,52.0,30.01,SE,142,2.0,4.0,47,0.00,,,0.00,0,weatherlink.com 1.10,2013-06-14 01:15:00,
2013-06-13 18:30:00,72.1,53.0,30.01,SSW,196,4.0,7.0,52,0.00,,,0.00,0,weatherlink.com 1.10,2013-06-14 01:30:00,
2013-06-13 18:45:00,70.2,54.0,30.01,East,91,3.0,5.0,56,0.00,,,0.00,0,weatherlink.com 1.10,2013-06-14 01:45:00,
2013-06-13 19:00:00,69.1,54.0,30.00,SSE,148,2.0,7.0,59,0.00,,,0.00,0,weatherlink.com 1.10,2013-06-14 02:00:00,
2013-06-13 19:15:00,68.2,55.0,30.00,SSE,165,0.0,7.0,62,0.00,,,0.00,0,weatherlink.com 1.10,2013-06-14 02:15:00,
2013-06-13 19:30:00,67.2,55.0,30.00,SSE,165,3.0,5.0,64,0.00,,,0.00,0,weatherlink.com 1.10,2013-06-14 02:30:00,
2013-06-13 19:45:00,66.4,55.0,30.00,SE,138,3.0,4.0,66,0.00,,,0.00,0,weatherlink.com 1.10,2013-06-14 02:45:00,
2013-06-13 20:00:00,65.2,55.0,30.00,ESE,123,0.0,5.0,69,0.00,,,0.00,0,weatherlink.com 1.10,2013-06-14 03:00:00,
2013-06-13 20:15:00,64.1,55.0,30.00,ESE,122,2.0,3.0,71,0.00,,,0.00,0,weatherlink.com 1.10,2013-06-14 03:15:00,
2013-06-13 20:30:00,63.2,54.0,30.00,SE,140,1.0,4.0,72,0.00,,,0.00,0,weatherlink.com 1.10,2013-06-14 03:30:00,
2013-06-13 20:45:00,62.6,53.0,30.00,SE,124,0.0,2.0,71,0.00,,,0.00,0,weatherlink.com 1.10,2013-06-14 03:45:00,
2013-06-13 21:00:00,61.8,53.0,30.00,SE,137,0.0,2.0,72,0.00,,,0.00,0,weatherlink.com 1.10,2013-06-14 04:00:00,
2013-06-13 21:16:00,61.5,52.0,30.00,SE,136,0.0,2.0,72,0.00,,,0.00,0,weatherlink.com 1.10,2013-06-14 04:16:00,
2013-06-13 21:31:00,61.4,52.0,30.01,SE,138,0.0,1.0,72,0.00,,,0.00,0,weatherlink.com 1.10,2013-06-14 04:31:00,
2013-06-13 21:46:00,61.0,52.0,30.01,SE,134,0.0,0.0,73,0.00,,,0.00,0,weatherlink.com 1.10,2013-06-14 04:46:00,
2013-06-13 22:01:00,60.4,52.0,30.01,East,94,0.0,1.0,75,0.00,,,0.00,0,weatherlink.com 1.10,2013-06-14 05:01:00,
2013-06-13 22:16:00,61.3,51.0,30.00,ESE,115,0.0,1.0,69,0.00,,,0.00,0,weatherlink.com 1.10,2013-06-14 05:16:00,
2013-06-13 22:31:00,60.9,52.0,30.00,SW,225,0.0,1.0,73,0.00,,,0.00,0,weatherlink.com 1.10,2013-06-14 05:31:00,
2013-06-13 22:46:00,60.1,53.0,30.01,SE,124,0.0,2.0,76,0.00,,,0.00,0,weatherlink.com 1.10,2013-06-14 05:46:00,
2013-06-13 23:01:00,59.8,54.0,30.01,SE,145,1.0,3.0,80,0.00,,,0.00,0,weatherlink.com 1.10,2013-06-14 06:01:00,
2013-06-13 23:16:00,59.1,54.0,30.00,SE,136,0.0,2.0,82,0.00,,,0.00,0,weatherlink.com 1.10,2013-06-14 06:16:00,
2013-06-13 23:31:00,58.5,54.0,30.00,SE,132,0.0,1.0,84,0.00,,,0.00,0,weatherlink.com 1.10,2013-06-14 06:31:00,
2013-06-13 23:46:00,58.1,54.0,30.00,SE,124,0.0,1.0,85,0.00,,,0.00,0,weatherlink.com 1.10,2013-06-14 06:46:00,